This is the latest recevied weather packets stored in our database for station/object OK3MS-5. If no packets are shown the sender has not sent any weather packets the latest 10 day(s).
| Time | Temp. | Humidity | Pressure | Rain* | Wind** | Luminosity | Snow |
|---|---|---|---|---|---|---|---|
| 1777140903 | 16.67° C | 27% | 1011.6 hPa | 0 mm | - | 2 W/m² | - |
| 1777140602 | 17.22° C | 27% | 1011.5 hPa | 0 mm | - | 3 W/m² | - |
| 1777140306 | 17.22° C | 26% | 1011.5 hPa | 0 mm | - | 4 W/m² | - |
| 1777140003 | 17.78° C | 26% | 1011.3 hPa | 0 mm | - | 5 W/m² | - |
| 1777139704 | 17.78° C | 26% | 1011.1 hPa | 0 mm | - | 7 W/m² | - |
| 1777139404 | 18.33° C | 25% | 1011.2 hPa | 0 mm | - | 10 W/m² | - |
| 1777139102 | 18.33° C | 25% | 1010.9 hPa | 0 mm | - | 14 W/m² | - |
| 1777138805 | 18.89° C | 25% | 1010.9 hPa | 0 mm | - | 17 W/m² | - |
| 1777138504 | 18.89° C | 24% | 1010.8 hPa | 0 mm | - | 20 W/m² | - |
| 1777138205 | 18.89° C | 25% | 1010.8 hPa | 0 mm | - | 24 W/m² | - |
| 1777137910 | 19.44° C | 24% | 1010.8 hPa | 0 mm | - | 27 W/m² | - |
| 1777137604 | 19.44° C | 24% | 1010.7 hPa | 0 mm | - | 31 W/m² | - |
| 1777137311 | 19.44° C | 24% | 1010.6 hPa | 0 mm | - | 34 W/m² | - |
| 1777137004 | 19.44° C | 23% | 1010.7 hPa | 0 mm | - | 38 W/m² | - |
| 1777136705 | 19.44° C | 22% | 1010.6 hPa | 0 mm | - | 42 W/m² | - |
| 1777136406 | 20° C | 23% | 1010.6 hPa | 0 mm | - | 48 W/m² | - |
| 1777136114 | 20° C | 23% | 1010.6 hPa | 0 mm | - | 60 W/m² | - |
| 1777135805 | 20° C | 23% | 1010.6 hPa | 0 mm | - | 68 W/m² | - |
| 1777135509 | 20° C | 22% | 1010.6 hPa | 0 mm | - | 84 W/m² | - |
| 1777135205 | 20° C | 22% | 1010.5 hPa | 0 mm | - | 95 W/m² | - |
| 1777134910 | 20° C | 22% | 1010.6 hPa | 0 mm | - | 107 W/m² | - |
| 1777134603 | 20° C | 21% | 1010.6 hPa | 0 mm | - | 116 W/m² | - |
| 1777134303 | 20.56° C | 20% | 1010.5 hPa | 0 mm | - | 133 W/m² | - |
| 1777133704 | 20.56° C | 21% | 1010.5 hPa | 0 mm | - | 165 W/m² | - |
| 1777133406 | 20.56° C | 22% | 1010.5 hPa | 0 mm | - | 160 W/m² | - |
* Rain latest hour (hover to see other rain measurements)
** Current wind speed in m/s (hover to see current wind gust speed)